Probability
18 16 12 9 5 2 1 0 0 0 1 1 1 0 0 0 0 0 0 0 0 0 0 0 0 0 0 0 0 0 0 0 1 1 1 0 0 0 0 0 0 0 0
15 13 10 6 4 2 1 0 0 0 1 1 0 0 0 0 0 0 0 0 0 0 0 0 0 0 0 0 0 0 0 0 0 0 0 0 0 0 0 0 0 0 0
10 9 7 5 3 3 2 1 0 1 2 1 0 0 0 0 0 0 0 0 0 0 0 0 0 0 0 0 0 0 0 0 0 0 0 0 0 0 0 0 0 0 0
7 7 6 5 4 4 3 2 1 2 2 1 0 0 0 0 0 0 0 0 0 0 0 0 0 0 0 0 0 0 0 0 0 0 0 0 0 0 0 0 0 0 0
6 6 5 4 4 5 4 3 3 3 2 1 0 0 0 0 0 0 0 0 0 0 0 0 0 0 0 0 0 0 0 0 0 0 0 0 0 0 0 0 0 0 0
3 3 2 2 3 3 3 3 2 2 1 0 0 0 0 0 0 0 0 0 0 0 0 0 0 0 0 0 0 0 0 0 0 0 0 0 0 0 0 0 0 0 0
1 1 0 0 1 1 1 1 1 1 1 0 0 0 0 0 0 0 0 0 0 0 0 0 0 0 0 0 0 0 0 0 0 0 0 0 0 0 0 0 0 0 0
0 0 0 0 0 0 0 0 0 0 0 0 0 0 0 0 0 0 0 0 0 0 0 0 0 0 0 0 0 0 0 0 0 0 0 0 0 0 0 0 0 0 0
0 0 0 0 0 0 0 0 0 0 0 0 0 0 0 0 0 0 0 0 0 0 0 0 0 0 0 0 0 0 0 0 0 0 0 0 0 0 0 0 0 0 0
0 0 0 0 0 0 0 1 0 0 0 1 1 1 1 1 0 0 0 0 0 0 0 0 0 0 0 0 0 0 0 0 0 0 0 0 0 0 0 0 0 0 0
0 0 0 0 0 0 0 0 0 1 1 2 2 2 2 1 0 0 0 0 0 0 0 0 0 0 0 0 0 0 0 0 0 0 0 0 0 0 0 0 0 0 0
0 0 0 0 0 0 0 0 0 1 2 2 2 1 1 1 0 0 0 0 0 0 0 0 0 0 0 0 0 0 0 0 0 0 0 0 0 0 0 0 0 0 0
0 0 0 0 0 1 1 0 0 1 1 1 1 0 0 0 0 0 0 0 0 0 0 0 0 0 0 0 0 0 0 0 0 0 0 0 0 0 0 0 0 0 0
1 0 0 0 1 2 2 1 0 0 0 0 0 0 0 0 0 0 0 0 0 0 0 0 0 0 0 0 0 0 0 0 0 0 0 0 0 0 0 0 0 0 0
2 1 0 1 2 3 2 1 0 0 0 0 0 0 0 0 0 0 0 0 0 0 0 0 0 0 0 0 0 0 0 0 0 0 0 0 0 0 0 0 0 0 0
3 2 1 1 2 2 2 1 0 0 0 0 0 0 0 0 0 0 0 0 0 0 0 0 0 0 0 0 0 0 0 0 0 0 0 0 0 0 0 0 0 0 0
3 2 1 0 1 1 1 0 0 0 0 0 0 0 0 0 0 0 0 0 0 0 0 0 0 0 0 0 0 0 0 0 0 0 0 0 0 0 0 0 0 0 0
3 2 1 0 0 0 0 0 0 0 0 0 0 0 0 0 0 0 0 0 0 0 0 0 0 0 0 0 0 0 0 0 0 0 0 0 0 0 0 0 0 0 0
3 2 1 0 0 0 0 0 0 0 0 0 0 0 0 0 0 0 0 0 0 0 0 0 0 0 0 0 0 0 0 0 0 0 0 0 0 0 0 0 0 0 0
2 1 1 0 0 0 0 0 0 0 0 1 1 0 0 0 0 0 0 0 0 0 0 0 0 0 0 0 0 0 0 0 0 0 0 0 0 0 0 0 0 0 0
1 0 0 0 0 0 0 0 0 0 0 1 1 0 0 0 0 0 1 1 0 0 0 0 0 0 0 0 0 0 0 0 0 0 0 0 0 0 0 0 0 0 0
0 0 0 0 0 1 0 0 0 0 0 1 1 0 0 0 0 0 1 1 1 0 0 0 0 0 0 0 0 0 0 0 0 0 0 0 0 0 0 0 0 0 0
0 0 0 0 0 0 0 0 0 0 0 0 0 0 0 0 0 0 1 1 1 0 0 0 0 0 0 0 0 0 0 0 0 0 0 0 0 0 0 0 0 0 0
0 0 0 0 0 0 0 0 0 0 1 1 1 0 0 0 0 0 0 1 1 0 0 0 0 0 0 0 0 0 0 0 0 0 0 0 0 0 0 0 0 0 0
0 0 0 0 0 1 0 0 0 0 1 2 1 0 0 0 0 0 0 0 0 0 0 0 0 0 0 0 0 0 0 0 0 0 0 0 0 0 0 0 0 0 0
0 0 0 0 0 1 0 0 0 0 1 2 1 0 0 0 0 0 0 0 0 0 0 0 0 0 0 0 0 0 0 0 0 0 0 0 0 0 0 0 0 0 0
Wind_Speed
2 1 1 1 1 1 1 1 1 1 1 1 2 2 2 2 2 2 3 3 3 4 4 3 3 3 2 2 2 2 2 2 2 2 1 0 0 1 1 1 2 3 3
2 2 1 1 2 2 1 1 1 1 1 1 2 2 2 2 3 3 3 3 3 4 4 4 4 3 3 3 2 3 2 2 1 2 1 1 1 1 2 2 2 3 3
2 2 2 1 2 2 2 2 1 1 1 1 1 2 2 2 2 3 3 3 3 3 4 4 4 4 4 3 3 3 2 2 1 1 2 1 1 1 2 2 2 1 2
2 2 2 1 1 1 1 2 2 1 1 1 1 2 1 2 2 3 3 3 3 3 3 3 4 3 4 4 4 3 2 2 2 1 2 1 1 2 2 2 2 2 2
1 1 2 1 1 1 1 1 1 2 2 2 2 2 1 2 4 5 4 4 4 4 3 3 3 2 3 3 3 3 3 2 2 2 2 2 2 2 2 2 2 2 2
1 1 1 1 0 0 0 1 1 2 2 2 2 2 2 3 4 6 5 4 4 4 3 3 2 1 2 3 3 3 3 3 3 2 2 2 2 2 2 2 1 1 2
1 1 1 0 0 1 1 2 2 2 1 2 2 2 2 2 3 4 5 5 4 3 3 3 3 3 3 3 3 4 4 5 5 3 3 3 2 2 1 2 1 1 1
1 1 1 0 0 1 1 1 1 2 2 2 2 2 1 2 3 4 7 4 4 3 3 3 2 2 4 5 4 3 2 2 3 4 3 3 2 2 1 2 2 2 1
1 0 1 1 1 1 1 1 1 1 2 2 2 1 1 1 2 3 5 4 4 4 3 3 3 2 4 6 4 3 3 3 3 3 3 3 4 4 3 1 2 1 2
1 1 1 1 1 1 1 1 1 2 2 2 2 1 1 1 1 2 3 3 3 3 2 0 2 3 3 5 4 4 4 3 3 2 3 5 5 6 6 4 3 2 1
1 1 0 1 1 1 1 1 1 2 3 2 2 2 2 1 1 2 1 2 3 4 3 1 0 2 3 4 4 3 4 4 4 3 3 3 3 3 4 5 4 3 2
1 0 0 0 2 1 1 1 2 2 3 3 2 2 1 1 1 2 3 3 4 3 3 3 1 3 5 6 4 5 6 5 3 3 3 3 2 3 3 4 4 4 4
1 0 1 1 1 1 2 2 2 2 2 2 1 1 1 0 1 2 3 4 5 3 3 6 7 8 8 6 7 8 6 4 3 3 3 3 3 3 2 2 3 4 4
1 1 1 1 2 2 2 2 2 2 2 3 2 2 1 1 1 1 2 2 4 4 4 6 9 10 7 7 6 5 4 4 3 2 2 3 2 2 2 3 3 3 3
1 1 2 2 2 2 1 2 2 1 2 2 3 3 2 2 2 3 3 3 3 3 5 5 5 4 4 4 4 4 4 3 4 3 3 3 3 3 3 3 3 3 3
1 2 2 2 2 2 2 1 1 3 3 4 4 4 3 3 4 5 5 6 6 5 3 5 5 5 5 4 3 3 3 3 3 3 3 3 3 3 3 3 3 3 4
2 2 2 2 2 2 2 2 2 3 5 6 7 8 8 8 8 8 8 8 9 5 4 5 6 6 5 4 3 2 3 3 3 3 3 3 3 3 3 3 3 4 4
2 2 3 3 3 3 3 3 3 3 3 3 6 10 11 11 11 11 8 5 6 5 5 6 6 5 4 3 3 2 3 3 2 3 3 3 3 3 3 3 3 4 4
3 2 2 3 4 4 4 4 4 4 3 3 2 4 9 10 10 10 6 5 7 7 5 5 5 4 4 3 3 3 3 3 3 3 3 3 3 3 4 4 4 5 5
3 4 5 4 5 4 4 4 3 3 3 3 3 4 3 4 5 5 5 6 7 7 6 5 4 4 4 4 3 3 3 3 3 3 3 3 3 3 4 4 4 4 4
4 4 6 6 5 4 4 4 4 4 4 4 4 4 3 4 5 5 4 5 6 5 5 5 4 4 4 3 3 4 4 3 3 3 3 3 3 3 3 4 4 4 4
4 4 4 5 4 3 4 4 5 4 5 6 5 4 5 5 5 4 4 3 4 4 4 4 5 5 4 3 3 3 3 3 2 2 3 4 3 3 4 4 4 4 4
5 5 5 4 3 3 4 5 4 5 5 5 5 4 3 4 4 4 4 4 4 4 4 3 4 4 3 3 3 3 3 3 3 2 3 4 3 3 3 4 5 5 5
6 5 5 4 3 3 5 5 5 6 6 5 5 5 4 4 4 5 4 4 4 4 4 4 4 5 6 4 3 3 2 2 3 3 3 4 5 5 4 4 5 6 5
6 5 4 4 4 4 5 5 5 5 6 5 5 5 4 4 4 4 4 4 4 5 6 5 3 4 5 6 4 3 2 3 3 4 4 4 6 6 6 6 5 6 6
6 5 4 4 4 5 5 5 5 5 5 5 5 4 4 4 4 4 4 4 4 4 4 4 5 5 6 5 4 3 2 4 4 5 5 5 6 6 6 6 8 7 7
Wind_Direction
123 115 74 36 326 340 35 38 52 49 31 359 351 355 354 347 347 345 337 335 342 340 330 331 325 317 316 311 312 309 301 273 262 282 321 325 91 122 154 213 184 183 170
141 126 95 43 10 8 26 35 44 62 23 10 353 344 341 355 353 342 337 346 343 340 334 331 323 320 325 318 308 295 292 285 255 259 276 283 269 203 193 213 222 199 166
131 124 103 69 31 16 11 4 8 24 345 319 322 325 336 349 344 341 341 338 346 339 337 338 334 335 329 323 306 298 293 296 271 239 253 260 251 225 207 223 232 203 185
122 112 107 101 71 42 14 1 358 356 322 311 310 309 323 347 350 349 348 347 342 336 335 335 337 343 336 326 312 313 308 299 281 256 249 254 237 225 211 209 222 209 204
100 104 111 118 110 82 6 334 341 346 344 341 327 322 336 8 14 4 342 342 343 334 333 338 342 352 345 325 321 329 324 308 287 261 247 239 236 219 221 216 215 200 197
127 106 93 86 49 354 334 322 347 5 358 345 343 349 3 19 32 16 351 332 322 322 324 322 302 275 302 285 283 289 290 290 290 281 266 249 245 239 235 228 216 200 207
136 129 138 127 28 18 5 14 9 4 344 331 329 347 33 29 8 350 340 318 306 310 311 307 316 359 351 335 304 275 270 260 255 261 266 270 266 255 235 242 242 244 240
152 166 188 105 29 55 35 15 348 335 325 314 308 305 332 359 344 334 329 310 299 295 305 317 325 5 5 346 323 319 311 292 257 242 252 265 273 288 268 240 229 230 262
155 131 64 20 29 27 18 347 334 313 303 293 283 278 305 327 308 320 327 309 305 308 318 346 351 35 8 350 333 324 321 304 272 236 231 245 252 257 255 246 219 216 244
105 69 65 23 4 322 303 303 312 299 288 289 302 307 304 305 279 292 315 301 319 320 317 51 44 17 357 351 335 325 322 320 315 274 246 244 240 236 230 225 218 221 246
115 104 76 46 318 274 280 297 287 290 299 295 286 274 263 253 231 243 294 302 320 327 325 330 36 332 330 323 309 295 289 298 299 283 264 248 236 227 214 210 208 209 218
125 99 29 340 310 348 359 296 278 272 278 272 263 263 250 223 220 220 238 260 297 315 320 334 348 296 299 297 282 273 285 295 282 277 265 252 241 232 222 208 199 206 213
159 173 298 306 309 305 285 276 278 280 282 288 282 274 287 270 211 227 241 268 282 288 303 315 309 288 283 277 258 263 271 266 263 266 266 254 239 231 217 209 205 210 225
173 209 255 259 263 260 259 269 284 311 318 322 330 330 322 336 0 347 290 275 276 276 287 293 287 278 272 276 279 258 233 237 243 255 262 263 260 231 217 208 208 209 220
177 250 268 269 271 267 277 302 297 313 302 304 318 322 328 337 330 334 323 325 339 351 326 300 283 274 262 256 252 245 231 228 235 240 249 257 252 239 229 214 208 216 226
212 259 274 276 272 263 241 260 288 245 242 249 255 269 291 274 279 294 300 298 300 315 311 286 287 286 280 274 269 255 239 228 235 233 234 245 246 244 241 228 212 221 233
215 262 277 280 281 279 275 265 259 249 246 252 253 253 251 265 276 282 289 300 295 285 265 268 273 277 274 271 270 271 269 251 236 243 240 241 245 246 238 233 229 232 238
241 251 262 271 274 280 280 276 272 266 246 240 239 243 250 254 261 269 280 301 281 248 245 258 264 269 272 271 269 270 271 267 247 242 238 237 244 250 247 240 238 239 244
251 266 269 281 282 280 279 281 284 284 278 262 241 237 243 248 255 259 247 248 266 273 265 260 260 265 274 270 260 251 258 265 265 264 257 252 245 243 249 248 245 240 237
231 247 259 270 274 274 273 278 281 278 278 270 261 256 232 237 252 246 221 233 250 263 269 272 271 270 269 267 259 251 246 257 268 258 255 255 251 248 253 258 259 254 242
249 229 226 248 263 278 292 295 290 286 284 281 274 272 261 259 269 266 247 236 251 267 275 278 277 272 267 259 262 267 264 250 251 268 270 264 257 256 254 256 257 261 261
277 274 248 257 267 277 292 294 293 291 292 291 285 267 243 256 276 281 277 264 262 266 279 291 295 295 301 306 301 290 282 273 268 272 282 279 273 273 273 270 267 265 266
266 269 269 268 275 280 269 277 284 288 289 287 289 290 265 262 275 277 279 277 273 275 274 270 275 283 286 286 286 291 304 311 306 301 293 294 291 279 273 274 275 277 275
269 271 278 284 282 281 286 292 293 294 297 303 308 307 304 297 293 292 292 287 282 278 272 268 271 286 296 293 287 293 311 320 316 315 316 304 297 290 285 285 283 282 281
269 269 269 275 279 281 287 293 297 302 310 313 312 308 305 309 312 309 307 299 292 290 294 295 292 298 295 294 302 303 297 295 298 300 287 281 284 285 285 283 281 281 280
265 271 270 269 274 277 280 285 290 294 299 302 305 307 312 315 311 313 319 316 311 306 305 303 300 307 313 315 323 320 292 280 278 278 280 277 277 277 283 284 285 284 281